| time (UTC) | temp C | wind direction | speed KPH | gust KPH | rain 1hr cm | rain 24hr cm | rain mn cm | humidity % | barometer mb |
| 20260506024542 | 8 | 0 | 0.0 | 1.6 | 0.00 | 0.36 | 0.10 | 94 | 1008.1 |
| 20260506024034 | 8 | 0 | 0.0 | 1.6 | 0.00 | 0.36 | 0.10 | 94 | 1008.2 |
| 20260506023535 | 8 | 0 | 0.0 | 3.2 | 0.00 | 0.36 | 0.10 | 94 | 1008.1 |
| 20260506023102 | 8 | 0 | 0.0 | 3.2 | 0.00 | 0.36 | 0.10 | 94 | 1008.2 |
| 20260506022535 | 8 | 0 | 0.0 | 1.6 | 0.00 | 0.36 | 0.10 | 94 | 1008.2 |
| 20260506022034 | 8 | 0 | 0.0 | 3.2 | 0.00 | 0.36 | 0.10 | 94 | 1008.2 |
| 20260506021606 | 8 | 0 | 0.0 | 3.2 | 0.00 | 0.36 | 0.10 | 94 | 1008.3 |
| 20260506021035 | 8 | 0 | 0.0 | 3.2 | 0.00 | 0.36 | 0.10 | 94 | 1008.1 |
| 20260506020534 | 8 | 0 | 0.0 | 1.6 | 0.00 | 0.36 | 0.10 | 94 | 1008.1 |
| 20260506020041 | 8 | 0 | 0.0 | 3.2 | 0.00 | 0.36 | 0.10 | 94 | 1008.2 |
| 20260506015531 | 8 | 0 | 0.0 | 3.2 | 0.00 | 0.36 | 0.10 | 94 | 1008.3 |
| 20260506015038 | 8 | 0 | 0.0 | 3.2 | 0.00 | 0.36 | 0.10 | 94 | 1008.3 |
| 20260506014545 | 8 | 304 | 0.0 | 1.6 | 0.00 | 0.36 | 0.10 | 94 | 1008.2 |
| 20260506014034 | 8 | 0 | 0.0 | 1.6 | 0.00 | 0.36 | 0.10 | 94 | 1008.2 |
| 20260506013536 | 8 | 304 | 0.0 | 0.0 | 0.00 | 0.36 | 0.10 | 94 | 1008.3 |
| 20260506013058 | 8 | 0 | 0.0 | 1.6 | 0.00 | 0.36 | 0.10 | 94 | 1008.3 |
| 20260506012535 | 8 | 0 | 0.0 | 1.6 | 0.00 | 0.36 | 0.10 | 94 | 1008.5 |
| 20260506012034 | 8 | 0 | 0.0 | 1.6 | 0.00 | 0.36 | 0.10 | 94 | 1008.3 |
| 20260506011604 | 8 | 0 | 0.0 | 1.6 | 0.00 | 0.36 | 0.10 | 94 | 1008.3 |
| 20260506011034 | 8 | 0 | 0.0 | 0.0 | 0.00 | 0.36 | 0.10 | 94 | 1008.3 |
| 20260506010534 | 8 | 0 | 0.0 | 0.0 | 0.00 | 0.36 | 0.08 | 94 | 1008.3 |
| 20260506010055 | 8 | 0 | 0.0 | 1.6 | 0.00 | 0.36 | 0.08 | 94 | 1008.4 |
| 20260506005536 | 8 | 0 | 0.0 | 1.6 | 0.00 | 0.36 | 0.08 | 94 | 1008.4 |
| 20260506005035 | 8 | 0 | 0.0 | 1.6 | 0.00 | 0.36 | 0.08 | 94 | 1008.4 |
| 20260506004543 | 8 | 0 | 0.0 | 1.6 | 0.00 | 0.36 | 0.08 | 94 | 1008.5 |
| 20260506004034 | 8 | 0 | 0.0 | 1.6 | 0.00 | 0.36 | 0.08 | 94 | 1008.5 |
| 20260506003534 | 8 | 0 | 0.0 | 0.0 | 0.00 | 0.36 | 0.08 | 94 | 1008.6 |
| 20260506003049 | 8 | 0 | 0.0 | 0.0 | 0.00 | 0.36 | 0.08 | 94 | 1008.6 |
| 20260506002533 | 8 | 0 | 0.0 | 1.6 | 0.00 | 0.36 | 0.08 | 94 | 1008.7 |
| 20260506002034 | 8 | 0 | 0.0 | 1.6 | 0.00 | 0.36 | 0.08 | 94 | 1008.7 |
| 20260506001542 | 8 | 0 | 0.0 | 1.6 | 0.00 | 0.36 | 0.08 | 94 | 1008.7 |
| 20260506001034 | 8 | 0 | 0.0 | 3.2 | 0.00 | 0.36 | 0.08 | 94 | 1008.8 |
| 20260506000535 | 8 | 0 | 0.0 | 3.2 | 0.03 | 0.36 | 0.08 | 94 | 1008.7 |
| 20260506000045 | 8 | 0 | 0.0 | 1.6 | 0.00 | 0.33 | 0.08 | 94 | 1008.8 |
| 20260505235535 | 8 | 0 | 0.0 | 1.6 | 0.00 | 0.38 | 0.08 | 94 | 1008.9 |
| 20260505235035 | 8 | 0 | 0.0 | 1.6 | 0.00 | 0.38 | 0.08 | 94 | 1008.9 |
| 20260505234540 | 9 | 0 | 0.0 | 1.6 | 0.00 | 0.38 | 0.08 | 94 | 1008.9 |
| 20260505234036 | 9 | 0 | 0.0 | 1.6 | 0.00 | 0.38 | 0.08 | 94 | 1008.8 |
| 20260505233534 | 9 | 0 | 0.0 | 1.6 | 0.00 | 0.38 | 0.08 | 94 | 1008.8 |
| 20260505233037 | 9 | 0 | 0.0 | 1.6 | 0.03 | 0.38 | 0.08 | 94 | 1008.9 |
| 20260505232535 | 9 | 0 | 0.0 | 1.6 | 0.03 | 0.38 | 0.08 | 94 | 1008.9 |
| 20260505232034 | 9 | 0 | 0.0 | 0.0 | 0.05 | 0.38 | 0.08 | 94 | 1008.9 |
| 20260505231603 | 9 | 0 | 0.0 | 0.0 | 0.05 | 0.38 | 0.08 | 94 | 1008.8 |
| 20260505231033 | 9 | 0 | 0.0 | 0.0 | 0.08 | 0.38 | 0.08 | 94 | 1008.9 |
| 20260505230533 | 9 | 0 | 0.0 | 1.6 | 0.05 | 0.36 | 0.05 | 94 | 1009.0 |
| 20260505230041 | 9 | 0 | 0.0 | 1.6 | 0.05 | 0.36 | 0.05 | 94 | 1009.0 |
| 20260505225534 | 9 | 0 | 0.0 | 1.6 | 0.08 | 0.61 | 0.05 | 94 | 1009.1 |
| 20260505225035 | 9 | 0 | 0.0 | 1.6 | 0.08 | 0.61 | 0.05 | 94 | 1009.1 |
| 20260505224542 | 9 | 0 | 0.0 | 1.6 | 0.08 | 0.61 | 0.05 | 94 | 1009.1 |
| 20260505224033 | 9 | 0 | 0.0 | 3.2 | 0.08 | 0.61 | 0.05 | 94 | 1009.1 |
| 20260505223533 | 9 | 0 | 0.0 | 3.2 | 0.08 | 0.61 | 0.05 | 94 | 1009.1 |
| 20260505223048 | 9 | 0 | 0.0 | 3.2 | 0.08 | 0.58 | 0.03 | 94 | 1009.1 |
| 20260505222533 | 10 | 0 | 0.0 | 3.2 | 0.08 | 0.58 | 0.03 | 94 | 1009.2 |
| 20260505222034 | 10 | 0 | 0.0 | 3.2 | 0.08 | 0.56 | 0.00 | 94 | 1009.1 |
| 20260505221543 | 10 | 345 | 0.0 | 3.2 | 0.08 | 0.56 | 0.00 | 94 | 1009.2 |
| 20260505221034 | 10 | 0 | 0.0 | 3.2 | 0.08 | 0.56 | 0.00 | 94 | 1009.3 |
| 20260505220534 | 10 | 0 | 0.0 | 3.2 | 0.08 | 0.56 | 0.00 | 94 | 1009.2 |
| 20260505220051 | 10 | 217 | 0.0 | 1.6 | 0.08 | 0.56 | 0.00 | 94 | 1009.3 |
| 20260505215534 | 10 | 0 | 0.0 | 1.6 | 0.08 | 0.64 | 0.53 | 94 | 1009.3 |
| 20260505215034 | 10 | 0 | 0.0 | 0.0 | 0.08 | 0.64 | 0.53 | 94 | 1009.2 |
| 20260505214554 | 10 | 0 | 0.0 | 0.0 | 0.05 | 0.64 | 0.51 | 94 | 1009.3 |
| 20260505214034 | 10 | 0 | 0.0 | 0.0 | 0.08 | 0.64 | 0.51 | 94 | 1009.4 |
| 20260505213533 | 10 | 0 | 0.0 | 0.0 | 0.08 | 0.64 | 0.51 | 94 | 1009.2 |
| 20260505213044 | 10 | 0 | 0.0 | 0.0 | 0.05 | 0.61 | 0.48 | 94 | 1009.3 |
| 20260505212534 | 10 | 0 | 0.0 | 0.0 | 0.05 | 0.61 | 0.48 | 94 | 1009.4 |
| 20260505212033 | 10 | 0 | 0.0 | 0.0 | 0.05 | 0.61 | 0.48 | 94 | 1009.3 |
| 20260505211543 | 10 | 0 | 0.0 | 0.0 | 0.03 | 0.58 | 0.46 | 94 | 1009.4 |
| 20260505211032 | 10 | 0 | 0.0 | 0.0 | 0.03 | 0.58 | 0.46 | 94 | 1009.3 |
| 20260505210532 | 10 | 0 | 0.0 | 0.0 | 0.03 | 0.58 | 0.46 | 94 | 1009.4 |
| 20260505210045 | 10 | 0 | 0.0 | 0.0 | 0.00 | 0.56 | 0.46 | 94 | 1009.5 |
| 20260505205532 | 10 | 0 | 0.0 | 0.0 | 0.00 | 0.61 | 0.46 | 94 | 1009.3 |
| 20260505205031 | 10 | 0 | 0.0 | 0.0 | 0.00 | 0.61 | 0.46 | 94 | 1009.4 |
| 20260505204548 | 10 | 0 | 0.0 | 0.0 | 0.00 | 0.61 | 0.46 | 94 | 1009.5 |
| 20260505204032 | 10 | 0 | 0.0 | 0.0 | 0.00 | 0.58 | 0.43 | 94 | 1009.4 |
| 20260505203535 | 10 | 0 | 0.0 | 0.0 | 0.00 | 0.58 | 0.43 | 94 | 1009.4 |
| 20260505203104 | 10 | 0 | 0.0 | 0.0 | 0.00 | 0.58 | 0.43 | 94 | 1009.4 |
| 20260505202534 | 10 | 0 | 0.0 | 0.0 | 0.00 | 0.58 | 0.43 | 94 | 1009.4 |
| 20260505202031 | 10 | 0 | 0.0 | 0.0 | 0.00 | 0.58 | 0.43 | 94 | 1009.3 |
| 20260505201547 | 10 | 0 | 0.0 | 0.0 | 0.00 | 0.58 | 0.43 | 94 | 1009.3 |
| 20260505201033 | 10 | 0 | 0.0 | 0.0 | 0.00 | 0.58 | 0.43 | 94 | 1009.3 |
| 20260505200535 | 10 | 0 | 0.0 | 0.0 | 0.00 | 0.58 | 0.43 | 94 | 1009.3 |
| 20260505200049 | 10 | 0 | 0.0 | 0.0 | 0.00 | 0.58 | 0.43 | 94 | 1009.3 |
| 20260505195535 | 10 | 0 | 0.0 | 0.0 | 0.00 | 0.58 | 0.43 | 94 | 1009.3 |
| 20260505195034 | 10 | 0 | 0.0 | 0.0 | 0.00 | 0.58 | 0.43 | 94 | 1009.4 |
| 20260505194548 | 10 | 0 | 0.0 | 0.0 | 0.00 | 0.58 | 0.43 | 94 | 1009.1 |
| 20260505194033 | 10 | 0 | 0.0 | 0.0 | 0.00 | 0.58 | 0.43 | 94 | 1009.2 |
| 20260505193536 | 10 | 0 | 0.0 | 0.0 | 0.00 | 0.58 | 0.43 | 94 | 1009.2 |
| 20260505193046 | 10 | 0 | 0.0 | 0.0 | 0.00 | 0.58 | 0.43 | 94 | 1009.1 |
| 20260505192533 | 10 | 0 | 0.0 | 0.0 | 0.03 | 0.58 | 0.43 | 94 | 1009.1 |
| 20260505192037 | 10 | 0 | 0.0 | 0.0 | 0.00 | 0.56 | 0.41 | 94 | 1009.0 |
| 20260505191550 | 10 | 0 | 0.0 | 0.0 | 0.00 | 0.56 | 0.41 | 94 | 1008.9 |
| 20260505191035 | 10 | 0 | 0.0 | 0.0 | 0.00 | 0.56 | 0.41 | 94 | 1009.1 |
| 20260505190533 | 10 | 0 | 0.0 | 1.6 | 0.00 | 0.56 | 0.41 | 94 | 1009.0 |
| 20260505190043 | 10 | 0 | 0.0 | 1.6 | 0.00 | 0.56 | 0.41 | 94 | 1009.0 |
| 20260505185532 | 10 | 0 | 0.0 | 1.6 | 0.00 | 0.74 | 0.41 | 94 | 1008.9 |
| 20260505185033 | 10 | 0 | 0.0 | 1.6 | 0.00 | 0.74 | 0.41 | 94 | 1009.1 |
| 20260505184542 | 10 | 0 | 0.0 | 1.6 | 0.00 | 0.74 | 0.41 | 94 | 1009.0 |
| 20260505184036 | 10 | 0 | 0.0 | 1.6 | 0.00 | 0.74 | 0.41 | 94 | 1009.0 |
| 20260505183535 | 10 | 0 | 0.0 | 0.0 | 0.00 | 0.74 | 0.41 | 94 | 1009.0 |
| 20260505183046 | 10 | 0 | 0.0 | 0.0 | 0.00 | 0.74 | 0.41 | 94 | 1009.1 |
| 20260505182534 | 10 | 0 | 0.0 | 0.0 | 0.00 | 0.74 | 0.38 | 94 | 1008.9 |
| 20260505182032 | 10 | 0 | 0.0 | 0.0 | 0.00 | 0.74 | 0.38 | 94 | 1009.0 |
| 20260505181547 | 10 | 0 | 0.0 | 0.0 | 0.00 | 0.74 | 0.38 | 94 | 1008.9 |
| 20260505181034 | 10 | 0 | 0.0 | 0.0 | 0.00 | 0.74 | 0.38 | 94 | 1008.9 |
| 20260505180532 | 10 | 0 | 0.0 | 1.6 | 0.00 | 0.74 | 0.38 | 94 | 1008.9 |
| 20260505180050 | 10 | 0 | 0.0 | 1.6 | 0.00 | 0.74 | 0.38 | 94 | 1008.9 |
| 20260505175531 | 10 | 0 | 0.0 | 3.2 | 0.00 | 0.86 | 0.38 | 94 | 1009.0 |
| 20260505175031 | 10 | 0 | 0.0 | 3.2 | 0.00 | 0.86 | 0.38 | 94 | 1008.9 |
| 20260505174547 | 10 | 0 | 0.0 | 3.2 | 0.00 | 0.86 | 0.38 | 94 | 1008.9 |
| 20260505174033 | 10 | 0 | 0.0 | 1.6 | 0.00 | 0.86 | 0.38 | 94 | 1008.9 |
| 20260505173531 | 11 | 0 | 0.0 | 1.6 | 0.00 | 0.86 | 0.38 | 94 | 1008.9 |
| 20260505173043 | 11 | 0 | 0.0 | 1.6 | 0.00 | 0.86 | 0.38 | 94 | 1008.9 |
| 20260505172530 | 11 | 0 | 0.0 | 1.6 | 0.00 | 0.86 | 0.38 | 94 | 1009.0 |
| 20260505172034 | 11 | 0 | 0.0 | 0.0 | 0.00 | 0.86 | 0.38 | 94 | 1008.9 |
| 20260505171544 | 11 | 0 | 0.0 | 0.0 | 0.00 | 0.86 | 0.38 | 94 | 1009.1 |
| 20260505171035 | 11 | 0 | 0.0 | 0.0 | 0.00 | 0.86 | 0.38 | 94 | 1009.1 |
| 20260505170534 | 11 | 0 | 0.0 | 1.6 | 0.00 | 0.86 | 0.38 | 94 | 1009.0 |
| 20260505170104 | 11 | 0 | 0.0 | 1.6 | 0.00 | 0.86 | 0.38 | 94 | 1009.1 |
| 20260505165534 | 11 | 0 | 0.0 | 1.6 | 0.00 | 0.86 | 0.38 | 94 | 1009.0 |
| 20260505165031 | 11 | 0 | 0.0 | 3.2 | 0.00 | 0.86 | 0.38 | 94 | 1009.0 |
| 20260505164542 | 11 | 0 | 0.0 | 3.2 | 0.00 | 0.86 | 0.38 | 94 | 1009.1 |
| 20260505164034 | 11 | 0 | 0.0 | 1.6 | 0.00 | 0.86 | 0.38 | 94 | 1009.3 |
| 20260505163535 | 11 | 0 | 0.0 | 1.6 | 0.00 | 0.86 | 0.38 | 94 | 1009.1 |
| 20260505163044 | 11 | 0 | 0.0 | 1.6 | 0.00 | 0.86 | 0.38 | 94 | 1009.1 |
| 20260505162535 | 11 | 0 | 0.0 | 3.2 | 0.00 | 0.86 | 0.38 | 95 | 1009.0 |
| 20260505162034 | 11 | 0 | 0.0 | 3.2 | 0.00 | 0.86 | 0.38 | 95 | 1009.0 |
| 20260505161543 | 11 | 0 | 0.0 | 3.2 | 0.00 | 0.86 | 0.38 | 95 | 1009.0 |
| 20260505161031 | 11 | 0 | 0.0 | 1.6 | 0.00 | 0.86 | 0.38 | 95 | 1009.2 |
| 20260505160534 | 11 | 0 | 0.0 | 4.8 | 0.00 | 0.86 | 0.38 | 95 | 1009.1 |
| 20260505153056 | 11 | 0 | 0.0 | 3.2 | 0.00 | 0.86 | 0.38 | 95 | 1009.2 |
| 20260505152533 | 11 | 0 | 0.0 | 3.2 | 0.00 | 0.84 | 0.36 | 95 | 1009.3 |
| 20260505152031 | 11 | 0 | 0.0 | 3.2 | 0.00 | 0.84 | 0.36 | 95 | 1009.3 |
| 20260505151558 | 11 | 0 | 0.0 | 1.6 | 0.00 | 0.84 | 0.36 | 95 | 1009.2 |
| 20260505151031 | 10 | 0 | 0.0 | 3.2 | 0.00 | 0.84 | 0.36 | 95 | 1009.3 |
| 20260505150537 | 10 | 0 | 0.0 | 3.2 | 0.00 | 0.84 | 0.36 | 95 | 1009.4 |
| 20260505140531 | 10 | 0 | 0.0 | 3.2 | 0.00 | 0.84 | 0.36 | 95 | 1009.7 |
| 20260505125036 | 10 | 0 | 0.0 | 3.2 | 0.00 | 0.84 | 0.36 | 95 | 1010.3 |
| 20260505124549 | 10 | 0 | 0.0 | 1.6 | 0.00 | 0.84 | 0.36 | 95 | 1010.1 |
| 20260505124032 | 10 | 0 | 0.0 | 3.2 | 0.00 | 0.84 | 0.36 | 95 | 1010.3 |
| 20260505123538 | 10 | 0 | 0.0 | 3.2 | 0.00 | 0.84 | 0.36 | 95 | 1010.2 |
| 20260505123047 | 10 | 0 | 0.0 | 3.2 | 0.00 | 0.84 | 0.36 | 95 | 1010.2 |
| 20260505122538 | 10 | 0 | 0.0 | 3.2 | 0.00 | 0.84 | 0.36 | 95 | 1010.2 |
| 20260505122034 | 10 | 0 | 0.0 | 3.2 | 0.00 | 0.84 | 0.36 | 95 | 1010.1 |
| 20260505121558 | 10 | 0 | 0.0 | 1.6 | 0.00 | 0.84 | 0.36 | 95 | 1010.3 |
| 20260505121036 | 10 | 0 | 0.0 | 1.6 | 0.00 | 0.84 | 0.36 | 95 | 1010.3 |
| 20260505120535 | 10 | 0 | 0.0 | 3.2 | 0.00 | 0.84 | 0.36 | 95 | 1010.2 |
| 20260505120048 | 10 | 0 | 0.0 | 3.2 | 0.00 | 0.84 | 0.36 | 95 | 1010.3 |
| 20260505115537 | 10 | 0 | 0.0 | 3.2 | 0.00 | 0.84 | 0.36 | 95 | 1010.4 |
| 20260505115034 | 11 | 0 | 0.0 | 3.2 | 0.00 | 0.84 | 0.36 | 95 | 1010.3 |
| 20260505114548 | 11 | 0 | 0.0 | 3.2 | 0.00 | 0.84 | 0.36 | 95 | 1010.3 |
| 20260505114036 | 11 | 0 | 0.0 | 3.2 | 0.00 | 0.84 | 0.36 | 95 | 1010.4 |
| 20260505113534 | 10 | 0 | 0.0 | 1.6 | 0.00 | 0.84 | 0.36 | 95 | 1010.4 |
| 20260505113047 | 10 | 0 | 0.0 | 1.6 | 0.00 | 0.84 | 0.36 | 95 | 1010.4 |
| 20260505112532 | 11 | 0 | 0.0 | 3.2 | 0.00 | 0.84 | 0.36 | 95 | 1010.4 |
| 20260505112036 | 10 | 0 | 0.0 | 3.2 | 0.00 | 0.84 | 0.36 | 96 | 1010.4 |
| 20260505111546 | 10 | 0 | 0.0 | 8.0 | 0.00 | 0.84 | 0.36 | 96 | 1010.6 |
| 20260505111036 | 10 | 0 | 0.0 | 8.0 | 0.00 | 0.84 | 0.36 | 96 | 1010.6 |
| 20260505110536 | 10 | 0 | 0.0 | 3.2 | 0.00 | 0.84 | 0.36 | 96 | 1010.6 |
| 20260505100538 | 10 | 5 | 0.0 | 1.6 | 0.00 | 0.84 | 0.36 | 95 | 1010.5 |
| 20260505100045 | 10 | 0 | 0.0 | 4.8 | 0.00 | 0.84 | 0.36 | 95 | 1010.6 |
| 20260505095535 | 10 | 0 | 0.0 | 4.8 | 0.00 | 0.84 | 0.36 | 95 | 1010.6 |
| 20260505095036 | 10 | 0 | 0.0 | 3.2 | 0.00 | 0.84 | 0.36 | 95 | 1010.6 |
| 20260505094545 | 10 | 0 | 0.0 | 3.2 | 0.00 | 0.84 | 0.36 | 95 | 1010.6 |
| 20260505094035 | 10 | 0 | 0.0 | 3.2 | 0.00 | 0.84 | 0.36 | 95 | 1010.5 |
| 20260505093535 | 10 | 0 | 0.0 | 3.2 | 0.00 | 0.84 | 0.36 | 95 | 1010.6 |
| 20260505093044 | 10 | 0 | 0.0 | 1.6 | 0.00 | 0.84 | 0.36 | 95 | 1010.5 |
| 20260505092535 | 10 | 0 | 0.0 | 1.6 | 0.00 | 0.84 | 0.36 | 95 | 1010.5 |
| 20260505092034 | 10 | 312 | 0.0 | 1.6 | 0.00 | 0.84 | 0.36 | 95 | 1010.4 |
| 20260505091544 | 10 | 0 | 0.0 | 3.2 | 0.00 | 0.84 | 0.36 | 95 | 1010.6 |
| 20260505091037 | 10 | 0 | 0.0 | 3.2 | 0.00 | 0.84 | 0.36 | 95 | 1010.5 |
| 20260505090535 | 10 | 0 | 0.0 | 1.6 | 0.00 | 0.84 | 0.36 | 95 | 1010.6 |
| 20260505090059 | 10 | 0 | 0.0 | 1.6 | 0.00 | 0.84 | 0.36 | 95 | 1010.7 |
| 20260505085536 | 10 | 0 | 0.0 | 3.2 | 0.00 | 0.84 | 0.36 | 95 | 1010.6 |
| 20260505085035 | 10 | 0 | 0.0 | 3.2 | 0.00 | 0.84 | 0.36 | 95 | 1010.7 |
| 20260505084551 | 10 | 0 | 0.0 | 4.8 | 0.00 | 0.84 | 0.36 | 95 | 1010.6 |
| 20260505084036 | 10 | 0 | 0.0 | 4.8 | 0.00 | 0.84 | 0.36 | 95 | 1010.7 |
| 20260505083533 | 10 | 0 | 0.0 | 3.2 | 0.00 | 0.84 | 0.36 | 95 | 1010.7 |
| 20260505083045 | 10 | 0 | 0.0 | 3.2 | 0.00 | 0.84 | 0.36 | 95 | 1010.7 |
| 20260505082534 | 10 | 30 | 0.0 | 3.2 | 0.00 | 0.84 | 0.36 | 95 | 1010.7 |
| 20260505082035 | 10 | 0 | 0.0 | 3.2 | 0.00 | 0.84 | 0.36 | 95 | 1010.7 |
| 20260505081545 | 10 | 29 | 0.0 | 3.2 | 0.00 | 0.84 | 0.36 | 95 | 1010.8 |
| 20260505081036 | 10 | 0 | 0.0 | 3.2 | 0.00 | 0.84 | 0.36 | 95 | 1010.8 |
| 20260505080534 | 10 | 0 | 0.0 | 3.2 | 0.00 | 0.84 | 0.36 | 95 | 1010.8 |
| 20260505080042 | 10 | 0 | 0.0 | 3.2 | 0.00 | 0.84 | 0.36 | 95 | 1010.6 |
| 20260505075537 | 10 | 0 | 0.0 | 3.2 | 0.00 | 0.84 | 0.36 | 95 | 1010.6 |
| 20260505075035 | 10 | 11 | 0.0 | 3.2 | 0.00 | 0.84 | 0.36 | 95 | 1010.6 |
| 20260505074541 | 10 | 0 | 0.0 | 3.2 | 0.00 | 0.84 | 0.36 | 95 | 1010.6 |
| 20260505074034 | 10 | 0 | 0.0 | 3.2 | 0.00 | 0.84 | 0.36 | 95 | 1010.8 |
| 20260505073534 | 10 | 0 | 0.0 | 1.6 | 0.00 | 0.84 | 0.36 | 95 | 1010.7 |
| 20260505073048 | 10 | 0 | 0.0 | 1.6 | 0.00 | 0.84 | 0.36 | 95 | 1010.7 |
| 20260505072535 | 10 | 0 | 0.0 | 1.6 | 0.00 | 0.84 | 0.36 | 95 | 1010.8 |
| 20260505072035 | 10 | 0 | 0.0 | 1.6 | 0.00 | 0.84 | 0.36 | 95 | 1010.8 |
| 20260505071546 | 10 | 0 | 0.0 | 1.6 | 0.00 | 0.84 | 0.36 | 95 | 1010.8 |
| 20260505071035 | 10 | 0 | 0.0 | 1.6 | 0.00 | 0.84 | 0.36 | 95 | 1010.7 |
| 20260505070538 | 10 | 0 | 0.0 | 1.6 | 0.00 | 0.84 | 0.36 | 95 | 1010.8 |
| 20260505070045 | 10 | 0 | 0.0 | 4.8 | 0.00 | 0.84 | 0.36 | 95 | 1010.7 |
| 20260505065535 | 10 | 0 | 0.0 | 4.8 | 0.00 | 0.84 | 0.36 | 95 | 1010.6 |
| 20260505065034 | 10 | 0 | 0.0 | 4.8 | 0.00 | 0.84 | 0.36 | 95 | 1010.7 |
| 20260505064549 | 10 | 0 | 0.0 | 3.2 | 0.00 | 0.84 | 0.36 | 95 | 1010.6 |
| 20260505064034 | 10 | 0 | 0.0 | 3.2 | 0.00 | 0.84 | 0.36 | 95 | 1010.7 |
| 20260505063534 | 10 | 352 | 0.0 | 3.2 | 0.00 | 0.84 | 0.36 | 95 | 1010.7 |
| 20260505063048 | 10 | 0 | 0.0 | 3.2 | 0.00 | 0.84 | 0.36 | 95 | 1010.8 |
| 20260505062534 | 10 | 0 | 0.0 | 3.2 | 0.00 | 0.84 | 0.36 | 95 | 1010.7 |
| 20260505062034 | 10 | 0 | 0.0 | 1.6 | 0.00 | 0.84 | 0.36 | 95 | 1010.8 |
| 20260505061547 | 10 | 0 | 0.0 | 3.2 | 0.00 | 0.84 | 0.36 | 95 | 1010.9 |
| 20260505061035 | 10 | 0 | 0.0 | 4.8 | 0.00 | 0.84 | 0.36 | 95 | 1011.0 |
| 20260505060534 | 10 | 0 | 0.0 | 4.8 | 0.00 | 0.84 | 0.36 | 95 | 1010.9 |
| 20260505060049 | 10 | 20 | 0.0 | 4.8 | 0.00 | 0.84 | 0.36 | 95 | 1010.9 |
| 20260505055535 | 10 | 0 | 0.0 | 4.8 | 0.00 | 0.84 | 0.36 | 95 | 1010.9 |
| 20260505055034 | 10 | 0 | 0.0 | 3.2 | 0.00 | 0.84 | 0.36 | 95 | 1010.9 |
| 20260505054547 | 10 | 0 | 0.0 | 3.2 | 0.00 | 0.84 | 0.36 | 95 | 1010.9 |
| 20260505054035 | 10 | 0 | 0.0 | 3.2 | 0.00 | 0.84 | 0.36 | 95 | 1010.9 |
| 20260505053533 | 11 | 0 | 0.0 | 3.2 | 0.00 | 0.84 | 0.36 | 95 | 1010.8 |
| 20260505053048 | 11 | 24 | 0.0 | 3.2 | 0.00 | 0.84 | 0.36 | 95 | 1010.8 |
| 20260505052535 | 11 | 0 | 0.0 | 3.2 | 0.00 | 0.84 | 0.36 | 95 | 1010.7 |
| 20260505052035 | 11 | 0 | 0.0 | 4.8 | 0.00 | 0.84 | 0.36 | 95 | 1010.7 |
| 20260505051542 | 11 | 0 | 0.0 | 4.8 | 0.00 | 0.84 | 0.36 | 95 | 1010.7 |
| 20260505051035 | 11 | 26 | 0.0 | 3.2 | 0.00 | 0.84 | 0.36 | 95 | 1010.7 |
| 20260505050535 | 11 | 0 | 0.0 | 3.2 | 0.00 | 0.84 | 0.36 | 95 | 1010.7 |
| 20260505041543 | 11 | 0 | 0.0 | 4.8 | 0.08 | 0.84 | 0.36 | 95 | 1010.7 |
| 20260505041035 | 11 | 0 | 0.0 | 4.8 | 0.08 | 0.84 | 0.36 | 95 | 1010.8 |
| 20260505040535 | 11 | 52 | 0.0 | 4.8 | 0.08 | 0.84 | 0.36 | 94 | 1010.8 |
| 20260505040050 | 11 | 0 | 0.0 | 3.2 | 0.08 | 0.84 | 0.36 | 94 | 1010.9 |
| 20260505035534 | 11 | 5 | 0.0 | 1.6 | 0.08 | 0.84 | 0.36 | 94 | 1010.8 |
| 20260505035034 | 11 | 0 | 0.0 | 1.6 | 0.08 | 0.84 | 0.36 | 95 | 1011.0 |
| 20260505034546 | 11 | 5 | 0.0 | 1.6 | 0.08 | 0.84 | 0.36 | 95 | 1010.9 |
| 20260505034036 | 11 | 0 | 0.0 | 3.2 | 0.08 | 0.84 | 0.36 | 95 | 1010.9 |
| 20260505033535 | 11 | 0 | 0.0 | 3.2 | 0.08 | 0.84 | 0.36 | 95 | 1010.9 |
| 20260505033102 | 11 | 0 | 0.0 | 1.6 | 0.08 | 0.84 | 0.36 | 95 | 1010.9 |
| 20260505032536 | 11 | 0 | 0.0 | 1.6 | 0.03 | 0.81 | 0.33 | 94 | 1010.9 |
| 20260505032035 | 11 | 0 | 0.0 | 3.2 | 0.00 | 0.79 | 0.30 | 94 | 1010.9 |
| 20260505031545 | 11 | 0 | 0.0 | 3.2 | 0.00 | 0.76 | 0.28 | 94 | 1010.8 |
| 20260505031035 | 11 | 0 | 0.0 | 1.6 | 0.00 | 0.76 | 0.28 | 94 | 1010.9 |
| 20260505030536 | 11 | 0 | 0.0 | 3.2 | 0.00 | 0.76 | 0.28 | 94 | 1010.9 |
| 20260505030044 | 11 | 0 | 0.0 | 3.2 | 0.00 | 0.76 | 0.28 | 94 | 1010.9 |
| 20260505025535 | 11 | 0 | 0.0 | 4.8 | 0.00 | 0.76 | 0.28 | 94 | 1011.0 |
| 20260505025034 | 11 | 0 | 0.0 | 4.8 | 0.00 | 0.76 | 0.28 | 94 | 1010.9 |